Regional Weather Roundup
Issued by NWS

Home | Current Version | Previous Version | Graphics & Text | Print | Product List | Glossary On
Versions: 1 2 3 4 5 6 7 8 9 10 11 12 13 14 15 16 17 18 19 20 21 22 23 24 25 26 27 28 29 30 31 32 33 34 35 36 37 38 39 40 41 42 43 44 45 46 47 48 49 50
000
ASUS43 KFSD 210302
RWRSD

WEATHER ROUNDUP FOR SOUTH DAKOTA
NATIONAL WEATHER SERVICE SIOUX FALLS SD
900 PM CST MON NOV 20 2017

NOTE: "FAIR" INDICATES FEW OR NO CLOUDS BELOW 12,000 FEET WITH NO
SIGNIFICANT WEATHER AND/OR OBSTRUCTIONS TO VISIBILITY.


SDZ001>005-009-010-012>017-210400-
NORTHWEST AND NORTH CENTRAL SOUTH DAKOTA

CITY           SKY/WX    TMP DP  RH WIND       PRES   REMARKS
BUFFALO          N/A     35  23  61 NW13      29.74R WCI  26
FAITH            N/A     38  26  62 N22       29.73R
MOBRIDGE       CLOUDY    41  23  48 NW18G30   29.69R
$$

SDZ012>016-024>037-041>051-057-063-072>074-210400-
SOUTHWEST AND SOUTH CENTRAL SOUTH DAKOTA

CITY           SKY/WX    TMP DP  RH WIND       PRES   REMARKS
RAPID CTY ARPT MOCLDY    44  23  43 N8        29.74R
PIERRE         CLEAR     44  28  53 NW13      29.69R
CUSTER         CLOUDY    37  19  48 W5        29.76R
ELLSWORTH AFB  MOCLDY    42  23  47 N8        29.74R
PHILIP         PTCLDY    37  25  61 NW8       29.72R
PINE RIDGE     CLEAR     41  23  48 SE7       29.75R
SPEARFISH      CLOUDY    37  25  60 CALM      29.78R
WINNER         FAIR      44  23  43 W5        29.71R
$$

SDZ004>011-016>023-039-040-210400-
NORTHEAST SOUTH DAKOTA

CITY           SKY/WX    TMP DP  RH WIND       PRES   REMARKS
ABERDEEN       CLEAR     37  20  50 N16       29.68R
WATERTOWN      CLEAR     39  27  62 NW15      29.61R
BROOKINGS        N/A     37  22  54 NW9       29.62
SISSETON         N/A     38  25  59 NW22      29.59R
$$

SDZ017-020-022-023-036>040-048>070-210400-
SOUTHEAST SOUTH DAKOTA

CITY           SKY/WX    TMP DP  RH WIND       PRES   REMARKS
SIOUX FALLS    PTCLDY    39  25  57 W7        29.62R
HURON          PTCLDY    44  24  45 NW12      29.65R
CHAMBERLAIN    PTCLDY    47  25  42 NW6       29.69R
MITCHELL       PTCLDY    41  24  51 NW12      29.66R
YANKTON        PTCLDY    44  26  49 W8        29.66R
$$

ABBREVIATIONS USED IN REMARKS
   TC - TEMPERATURE IN CELSIUS
  WCI - WIND CHILL INDEX
   HX - HEAT INDEX
  VSB - VISIBILITY




USA.gov is the U.S. government's official web portal to all federal, state and local government web resources and services.